Weather History for KIEN - February, 2012

Change the Weather History Date:

Thursday, February 23, 2012

  Actual Average Record
Temperature  
Mean Temperature 33 °F 29 °F  
Max Temperature 39 °F 42 °F 61 °F (2002)
Min Temperature 27 °F 15 °F -8 °F (2003)
Degree Days  
Heating Degree Days 32 36  
Month to date heating degree days 853 897  
Since 1 July heating degree days 4842 5174  
Cooling Degree Days 0 0  
Month to date cooling degree days 0 0  
Year to date cooling degree days 0 0  
Moisture  
Dew Point 21 °F    
Average Humidity 65    
Maximum Humidity 92    
Minimum Humidity 37    
Precipitation  
Precipitation T in 0.01 in 0.03 in (2014)
Month to date precipitation 0.69 0.37  
Year to date precipitation 1.08 0.69  
Sea Level Pressure  
Sea Level Pressure 29.80 in    
Wind  
Wind Speed 15 mph (NNW)    
Max Wind Speed 30 mph    
Max Gust Speed 45 mph    
Visibility 10 miles    
Events      
T = Trace of Precipitation, MM = Missing Value Source: NWS Daily Summary

Daily Weather History Graph

Daily Weather History Graph

Search for Another Location

Airport or City:

Trip Planner

Search our weather history database for the weather conditions in past years. The results will help you decide how hot, cold, wet, or windy it might be!

Date:

Astronomy

Feb. 23, 2012 Rise Set
Actual Time 6:36 AM MST 5:31 PM MST
Civil Twilight 6:07 AM MST 5:59 PM MST
Nautical Twilight 5:34 AM MST 6:32 PM MST
Astronomical Twilight 5:01 AM MST 7:05 PM MST
Moon 6:59 AM MST (2/23) 7:44 PM MST (2/23)
Length of Visible Light 11h 52m
Length of Day
10h 54m
Waxing Crescent, 3% of the Moon is Illuminated
Feb 23
Waxing Crescent
Feb 29
First Quarter
Mar 8
Full
Mar 14
Last Quarter
Mar 22
New

Hourly Weather History & Observations

Time (MST) Temp. Windchill Dew Point Humidity Pressure Visibility Wind Dir Wind Speed Gust Speed Precip Events Conditions
12:52 AM 36.0 °F 29.0 °F 33.1 °F 89% 29.40 in 10.0 mi NW 9.2 mph - N/A   Clear
1:52 AM 36.0 °F 28.5 °F 30.9 °F 82% 29.44 in 10.0 mi WNW 10.4 mph - N/A   Mostly Cloudy
2:52 AM 37.0 °F 27.4 °F 28.0 °F 70% 29.48 in 10.0 mi NNW 17.3 mph 24.2 mph N/A   Overcast
3:52 AM 35.1 °F 22.2 °F 25.0 °F 67% 29.55 in 10.0 mi NNW 27.6 mph 44.9 mph N/A   Overcast
4:52 AM 33.1 °F 20.3 °F 21.9 °F 64% 29.60 in 10.0 mi NNW 24.2 mph 43.7 mph N/A   Overcast
5:52 AM 32.0 °F 20.5 °F 19.9 °F 61% 29.65 in 10.0 mi North 18.4 mph 29.9 mph N/A   Mostly Cloudy
6:52 AM 30.9 °F 19.8 °F 19.9 °F 64% 29.70 in 10.0 mi NNW 16.1 mph 25.3 mph N/A   Overcast
7:52 AM 32.0 °F 20.8 °F 19.0 °F 59% 29.74 in 10.0 mi NNW 17.3 mph 31.1 mph N/A   Overcast
8:52 AM 32.0 °F 18.6 °F 17.1 °F 54% 29.78 in 10.0 mi North 25.3 mph 35.7 mph N/A   Overcast
9:52 AM 32.0 °F 20.5 °F 18.0 °F 56% 29.81 in 10.0 mi NNW 18.4 mph 27.6 mph N/A   Overcast
10:52 AM 33.1 °F 20.9 °F 18.0 °F 54% 29.83 in 10.0 mi North 21.9 mph 32.2 mph N/A   Overcast
11:52 AM 35.1 °F 22.5 °F 16.0 °F 46% 29.84 in 10.0 mi North 26.5 mph 38.0 mph N/A   Mostly Cloudy
12:52 PM 37.9 °F 27.6 °F 17.1 °F 43% 29.83 in 10.0 mi North 20.7 mph 32.2 mph N/A   Mostly Cloudy
1:52 PM 37.9 °F 27.9 °F 15.1 °F 39% 29.83 in 10.0 mi North 19.6 mph 31.1 mph N/A   Partly Cloudy
2:52 PM 37.9 °F 26.6 °F 14.0 °F 38% 29.85 in 10.0 mi North 25.3 mph 32.2 mph N/A   Scattered Clouds
3:52 PM 34.0 °F 23.0 °F 19.9 °F 56% 29.89 in 8.0 mi North 18.4 mph 27.6 mph 0.00 in   Scattered Clouds
4:52 PM 32.0 °F 21.2 °F 17.1 °F 54% 29.92 in 10.0 mi North 16.1 mph 23.0 mph N/A   Clear
5:52 PM 30.0 °F 22.4 °F 19.9 °F 66% 29.97 in 10.0 mi NNW 8.1 mph - N/A   Mostly Cloudy
6:52 PM 28.9 °F 21.1 °F 21.0 °F 72% 30.01 in 10.0 mi NNW 8.1 mph 17.3 mph N/A   Mostly Cloudy
7:52 PM 28.0 °F 20.8 °F 21.9 °F 78% 30.03 in 10.0 mi WNW 6.9 mph - N/A   Mostly Cloudy
8:52 PM 28.0 °F 24.2 °F 21.9 °F 78% 30.04 in 10.0 mi WNW 3.5 mph - N/A   Overcast
10:52 PM 28.0 °F - 23.0 °F 81% 30.06 in 10.0 mi Calm Calm - 0.00 in   Overcast
11:52 PM 27.0 °F 20.5 °F 21.0 °F 78% 30.07 in 10.0 mi WNW 5.8 mph - N/A   Overcast